Location: Dugenta
(41.1333°N, 14.4500°E)
Time: 10:44:00
(UTC+00:00)

GP-B - Pass Details

Date: 03 March 2021
Orbit: 631 x 635 km, 89.8° (Epoch: 20 April)

Event Time Altitude Azimuth Distance (km) Brightness Sun altitude
Rises 17:43:00 0° 155° (SSE) 2,915 6.3 -9.7°
Reaches altitude 10° 17:45:21 10° 146° (SE) 2,012 5.4 -10.2°
Maximum altitude 17:49:21 34° 81° (E) 1,041 3.7 -10.9°
Drops below altitude 10° 17:53:23 10° 16° (NNE) 2,028 5.6 -11.7°
Sets 17:55:45 0° 8° (N) 2,942 6.5 -12.1°
